Back to catalog

NULINK-2

AliveCommunicationsSSO
NORAD 68994·PAYLOAD·🇺🇸 United States

Launched May 3, 2026 from Vandenberg Space Force Base

Loading…

Next Passes (next 24 hours)

TLE

FreshSource: Space-Track

Epoch: Sep 13, 2026, 16:10 UTC

1 68994U 26100Q   26256.67398370  .00000912  00000-0  93711-4 0  9996
2 68994  97.7207 152.5494 0002310  59.3491 300.7956 14.92752735 19901

Track NULINK-2 in real time with AllMySat

Download on the App Store